Terminal Aerodrome Forecast
Issued by NWS

Home | Current Version | Previous Version | Text Only | Print | Product List | Glossary On
Versions: 1 2 3 4 5 6 7 8 9 10 11 12 13
692
FTAK31 PAJN 071542 AAA
TAFAKT
TAF AMD
PAKT 071542Z 0716/0812 15015G25KT P6SM -RA OVC025 WS020/14040KT
     FM071900 16010G20KT 3SM RA BR OVC015
     FM072300 15010KT 4SM -SHRA BR SCT007 OVC015
     FM080400 15013G18KT 4SM -RA BR SCT007 OVC015
      AMD LTD TO CLD VIS AND WIND 0809/0812=

USA.gov is the U.S. government's official web portal to all federal, state and local government web resources and services.